[[{"header":{"parameterUnit":"m.s-1","parameterCategory":1,"la1":30.2991,"la2":30.254,"lo1":-89.0895,"lo2":-89.0444,"dy":0.0017,"dx":0.0017,"nx":28,"ny":28,"refTime":"2026-02-25T03:00:00:Z","depth":0,"parameterNumber":2,"parameterNumberName":"U-component_of_WINDS"},"data":[0,0,0,0,0,0,0,0,0,0,0,0,0,0,0,0,0,0,0,0,0,0,0,0,0,0,0,0,0,0,0,0,0,0,0,0,0,0,0,0,0,0,0,0,0,0,0,0,0,0,0,0,0,0,0,0,0,0,1.9025,1.9026,0,1.9142,1.9143,1.9145,1.9145,1.9143,1.9142,1.914,1.9259,1.9263,1.9268,0,0,0,0,0,0,0,0,0,0,0,0,0,1.8798,1.8802,1.9024,1.9026,1.9027,1.9142,1.9143,1.9145,1.9145,1.9143,1.9141,1.9139,1.9257,1.9263,1.9268,0,0,0,0,0,0,0,0,0,0,0,0,0,1.8904,1.8803,1.9024,1.9041,1.9044,1.9142,1.9144,1.9145,1.9145,1.9143,1.9141,1.9139,1.9256,1.9262,1.9269,1.9357,0,0,1.929,1.9293,0,0,0,0,0,0,0,0,1.8898,1.8912,1.9037,1.904,1.9043,1.9126,1.9107,1.9216,1.9146,1.9107,1.914,1.9138,1.9217,1.9226,1.9253,1.9363,1.9368,1.9291,1.9295,1.9298,1.93,0,0,0,0,0,0,0,1.889,1.8907,1.9071,1.9039,1.9043,1.9042,1.9055,1.9128,1.9173,1.911,1.911,1.9124,1.9218,1.9247,1.9256,1.9369,1.929,1.9296,1.9301,1.9303,1.9555,1.9557,0,0,0,0,0,0,1.888,1.8901,1.9067,1.9074,1.8963,1.9048,1.9062,1.9102,1.9172,1.9181,1.9126,1.9124,1.9236,1.9248,1.926,1.9367,1.9298,1.9304,1.9308,1.9552,1.9555,1.9558,0,0,0,0,0,0,1.8875,1.8895,1.9062,1.8988,1.9009,1.9054,1.9099,1.9106,1.9135,1.9184,1.9192,1.9148,1.9235,1.9251,1.9333,1.9371,1.9307,1.9313,1.9549,1.9553,1.9557,1.9581,0,0,0,0,0,0,1.8868,1.8893,1.8927,1.8989,1.9013,1.9134,1.9102,1.911,1.9147,1.9145,1.9207,1.9215,1.9234,1.9322,1.934,1.9379,1.9319,1.9546,1.9551,1.9556,1.9577,1.9586,1.9593,0,0,0,0,0,1.886,1.893,1.8929,1.8949,1.9057,1.9136,1.915,1.9172,1.915,1.9184,1.9216,1.9213,1.9364,1.9331,1.935,1.9393,1.9544,1.955,1.9555,1.9574,1.9584,1.9592,0,0,0,0,0,0,1.8871,1.8938,1.8938,1.903,1.9077,1.9136,1.918,1.9182,1.9236,1.9232,1.9256,1.927,1.9351,1.938,1.9342,1.9481,1.9451,1.9461,1.9459,1.9469,1.9476,1.9467,1.9324,0,0,0,0,0,1.8884,1.8943,1.8998,1.9073,1.9097,1.9135,1.917,1.9182,1.9232,1.9252,1.929,1.9338,1.9396,1.9434,1.9491,1.9582,1.9594,1.962,1.9628,1.9634,1.9642,1.9691,1.9702,1.9577,1.9577,1.9577,0,0,1.8912,1.8956,1.8991,1.9077,1.9115,1.9174,1.9152,1.9216,1.926,1.9262,1.9341,1.9371,1.9426,1.9512,1.9552,1.9539,1.9679,1.9641,1.9646,1.965,1.9698,1.971,1.972,1.9581,1.958,1.958,0,0,1.8992,1.9032,1.9098,1.9137,1.9196,1.922,1.9236,1.9294,1.9314,1.9394,1.9397,1.9449,1.9549,1.9588,1.9621,1.9715,1.9714,1.9733,1.9773,1.982,1.983,1.9839,1.9871,1.9883,1.9741,1.9741,1.9741,0,1.9019,1.911,1.9132,1.9197,1.9233,1.9238,1.9305,1.9341,1.9415,1.944,1.9424,1.9549,1.9587,1.9682,1.9705,1.9732,1.9749,1.9726,1.9827,1.9836,1.9844,1.9876,1.9888,1.9743,1.9743,1.9743,1.9742,0,1.9139,1.9202,1.9248,1.9319,1.9362,1.9427,1.9458,1.9498,1.9507,1.9532,1.9613,1.9658,1.9723,1.9747,1.9756,1.9843,1.9833,1.9822,1.9792,1.9858,1.9887,1.99,1.9746,1.9745,1.9744,1.9744,0,0,1.923,1.9312,1.9329,1.9361,1.9425,1.9473,1.9538,1.9602,1.9635,1.9686,1.974,1.9825,1.9814,1.9852,1.9865,1.9907,1.9977,1.989,1.9892,1.9904,2.0074,2.0081,2.0095,1.9977,1.9979,1.9981,2.0069,0,1.9316,1.9432,1.9454,1.9554,1.9612,1.9617,1.9673,1.9718,1.9744,1.9795,1.9823,1.9882,1.9865,1.9887,1.9929,1.996,2.0011,1.9954,2.0026,2.0028,2.0011,2.0111,2.0119,2.02,2.0081,2.0083,2.0084,0,1.9433,1.9486,1.9592,1.9648,1.9673,1.9723,1.9783,1.9833,1.9884,1.9899,1.9941,1.9949,2.0016,1.9984,2.0075,2.0035,2.0066,2.0086,2.0089,2.0096,2.006,2.0119,2.0226,2.0238,2.0103,2.0101,2.01,0,1.9487,1.9585,1.9661,1.9689,1.9756,1.9791,1.982,1.9869,1.9906,1.9958,1.9982,2.0041,2.0073,2.0118,2.0142,2.0117,2.0231,2.0201,2.0245,2.0244,2.0268,2.0266,2.0381,2.0289,2.0289,2.0289,2.0289,0,1.958,1.9645,1.9686,1.9733,1.9805,1.9829,1.9899,1.9928,1.9971,2.0023,2.0031,2.0079,2.0108,2.016,2.0179,2.0251,2.0266,2.0279,2.0283,2.0278,2.0276,2.0298,2.0293,2.0292,2.0291,2.0291,2.029,0,1.9653,1.9683,1.9766,1.9823,1.9839,1.9889,1.9937,1.9982,2.0008,2.0073,2.0089,2.0129,2.019,2.0219,2.0295,2.0308,2.0389,2.039,2.0372,2.0373,2.0415,2.041,2.0547,2.0565,2.0462,2.0463,2.0464,0,1.971,1.976,1.9822,1.9857,1.9888,1.9945,1.9982,2.0007,2.0046,2.0107,2.0144,2.0206,2.0257,2.0355,2.039,2.0448,2.0449,2.0493,2.0458,2.0451,2.0449,2.0445,2.045,2.0499,2.05,2.0501,2.0502,0,1.9808,1.9821,1.9875,1.9934,1.9979,2.0027,2.0073,2.0102,2.0134,2.0177,2.024,2.0279,2.0357,2.0418,2.0478,2.0507,2.051,2.0513,2.0525,2.052,2.0507,2.0514,2.0388,2.0509,2.0508,2.0508,2.0507,2.0507,1.9874,1.9918,1.9969,2.0028,2.0066,2.011,2.0154,2.0185,2.0238,2.0304,2.0315,2.0382,2.043,2.0511,2.0543,2.0595,2.0585,2.0604,2.0608,2.0612,2.0614,2.05,2.0606,2.0606,2.0606,2.0606,2.0606,0,1.9972,2.0004,2.0059,2.0124,2.0171,2.017,2.0221,2.026,2.0319,2.0364,2.0414,2.0486,2.0545,2.0584,2.0644,2.0678,2.068,2.0693,2.069,2.0696,2.0621,2.0603,2.0689,2.0689,2.0689,2.0689,2.0689,2.0689,2.0028,2.0102,2.012,2.0213,2.0245,2.0311,2.034,2.038,2.0416,2.0496,2.0545,2.0571,2.0613,2.0676,2.0729,2.0739,2.076,2.0773,2.0782,2.0711,2.0702,2.0693,2.0677,2.0778,2.0778,2.0854,2.0854,2.0855]},{"header":{"parameterUnit":"m.s-1","parameterCategory":1,"la1":30.2991,"la2":30.254,"lo1":-89.0895,"lo2":-89.0444,"dy":0.0017,"dx":0.0017,"nx":28,"ny":28,"refTime":"2026-02-25T03:00:00:Z","depth":0,"parameterNumber":3,"parameterNumberName":"V-component_of_WINDS"},"data":[0,0,0,0,0,0,0,0,0,0,0,0,0,0,0,0,0,0,0,0,0,0,0,0,0,0,0,0,0,0,0,0,0,0,0,0,0,0,0,0,0,0,0,0,0,0,0,0,0,0,0,0,0,0,0,0,0,0,4.7096,4.7097,0,4.7153,4.7154,4.7154,4.7108,4.7106,4.7104,4.7102,4.7157,4.716,4.7163,0,0,0,0,0,0,0,0,0,0,0,0,0,4.6942,4.6945,4.7096,4.7097,4.7098,4.7153,4.7154,4.7155,4.7108,4.7106,4.7104,4.7101,4.7156,4.7159,4.7163,0,0,0,0,0,0,0,0,0,0,0,0,0,4.7005,4.6946,4.7096,4.7081,4.708,4.7153,4.7154,4.7155,4.7109,4.7106,4.7103,4.71,4.7154,4.7159,4.7164,4.7253,0,0,4.7179,4.7181,0,0,0,0,0,0,0,0,4.7001,4.701,4.7083,4.7082,4.7082,4.7121,4.7119,4.7187,4.711,4.7098,4.7102,4.7099,4.7147,4.7152,4.7169,4.7255,4.7258,4.7179,4.7182,4.7184,4.7186,0,0,0,0,0,0,0,4.6997,4.7008,4.7118,4.7084,4.7083,4.707,4.7076,4.7132,4.7138,4.7099,4.7095,4.7103,4.7146,4.7164,4.717,4.7258,4.7179,4.7184,4.7187,4.7188,4.7417,4.742,0,0,0,0,0,0,4.6995,4.7004,4.7117,4.712,4.7034,4.7075,4.7082,4.7111,4.7137,4.7138,4.7106,4.7101,4.7158,4.7164,4.7172,4.7275,4.7184,4.7189,4.7192,4.7414,4.7418,4.7421,0,0,0,0,0,0,4.6992,4.7005,4.7114,4.7061,4.7074,4.7081,4.7114,4.7114,4.7132,4.7142,4.7143,4.7124,4.7155,4.7165,4.7233,4.7276,4.7191,4.7196,4.741,4.7415,4.742,4.7484,0,0,0,0,0,0,4.6987,4.7004,4.7039,4.7063,4.7077,4.7176,4.7117,4.7117,4.7141,4.7135,4.716,4.7161,4.7154,4.7225,4.7237,4.7282,4.7199,4.7406,4.7413,4.7418,4.7478,4.7491,4.7501,0,0,0,0,0,4.6982,4.7055,4.7042,4.7055,4.7122,4.7179,4.7187,4.7179,4.7145,4.7179,4.7185,4.716,4.727,4.7233,4.7246,4.7292,4.7404,4.7411,4.7418,4.7473,4.7488,4.7501,0,0,0,0,0,0,4.7036,4.7058,4.7043,4.7126,4.7151,4.7171,4.7214,4.7195,4.7229,4.7222,4.7209,4.7215,4.7286,4.7296,4.7254,4.7378,4.7331,4.7341,4.7369,4.7383,4.7395,4.739,4.7204,0,0,0,0,0,4.7058,4.7104,4.712,4.7192,4.7205,4.7208,4.7232,4.7224,4.7248,4.7258,4.7269,4.7293,4.7332,4.7359,4.7396,4.748,4.7483,4.7518,4.753,4.7539,4.7547,4.759,4.7605,4.7444,4.7444,4.7444,0,0,4.7103,4.712,4.715,4.7203,4.7221,4.7267,4.7216,4.7268,4.7301,4.7265,4.7329,4.7339,4.7364,4.744,4.7473,4.745,4.7592,4.7548,4.7556,4.7558,4.7598,4.7614,4.7627,4.7449,4.7448,4.7448,0,0,4.7208,4.7227,4.7288,4.7307,4.7335,4.7336,4.7351,4.7374,4.7378,4.7443,4.7417,4.7455,4.7525,4.7543,4.7561,4.7672,4.7649,4.7684,4.7744,4.7785,4.7798,4.7809,4.7846,4.786,4.7693,4.7693,4.7693,0,4.726,4.7329,4.7321,4.7374,4.7396,4.7368,4.7427,4.7446,4.7485,4.75,4.7474,4.7559,4.7574,4.7652,4.7679,4.7696,4.771,4.7681,4.7797,4.7808,4.7818,4.7853,4.7868,4.7697,4.7697,4.7696,4.7696,0,4.739,4.7439,4.7484,4.7523,4.7551,4.7607,4.7605,4.7634,4.7623,4.7626,4.7691,4.7708,4.7747,4.7766,4.7756,4.7842,4.7826,4.7799,4.7751,4.7838,4.787,4.7884,4.7703,4.7701,4.77,4.7699,0,0,4.7531,4.7564,4.758,4.7596,4.7625,4.7661,4.7715,4.7754,4.7778,4.7806,4.7849,4.7908,4.7882,4.7903,4.7894,4.7931,4.8015,4.7899,4.7899,4.7918,4.8108,4.8127,4.8143,4.8,4.8003,4.8005,4.8105,0,4.7635,4.773,4.7723,4.7812,4.7855,4.7827,4.7874,4.7895,4.7899,4.7935,4.7939,4.798,4.7945,4.7957,4.7992,4.7997,4.8052,4.799,4.8038,4.8039,4.803,4.816,4.8181,4.8274,4.8118,4.812,4.8122,0,4.777,4.7802,4.7895,4.7915,4.7933,4.7975,4.8009,4.8045,4.8068,4.8068,4.8091,4.8076,4.8127,4.808,4.815,4.8108,4.8127,4.8132,4.8135,4.8138,4.8084,4.8163,4.8304,4.8317,4.8142,4.8141,4.8139,0,4.7859,4.7926,4.799,4.8005,4.8031,4.8061,4.8073,4.8093,4.8116,4.8146,4.816,4.8196,4.8214,4.8241,4.8234,4.8201,4.8305,4.8258,4.8304,4.8305,4.8326,4.8324,4.8469,4.8342,4.8342,4.8342,4.8342,0,4.7975,4.8033,4.803,4.8069,4.8132,4.8123,4.8185,4.8193,4.8211,4.8249,4.8228,4.8264,4.8255,4.829,4.8286,4.8342,4.8352,4.8352,4.8349,4.8352,4.8352,4.8363,4.8355,4.8346,4.8345,4.8344,4.8343,0,4.8086,4.8087,4.8154,4.8173,4.8179,4.8224,4.8239,4.8275,4.8277,4.8326,4.8337,4.834,4.838,4.8377,4.8423,4.8419,4.8489,4.848,4.8482,4.8479,4.8525,4.852,4.868,4.87,4.8562,4.8564,4.8565,0,4.8159,4.8202,4.8226,4.825,4.8264,4.8305,4.8328,4.8321,4.8346,4.8374,4.8406,4.8444,4.8475,4.854,4.8545,4.8579,4.8569,4.8623,4.8574,4.8575,4.8567,4.8564,4.8567,4.8632,4.8634,4.8635,4.8636,0,4.8287,4.8285,4.8321,4.8356,4.8385,4.8412,4.8437,4.8458,4.8453,4.8482,4.8523,4.8547,4.8593,4.863,4.8662,4.8673,4.8653,4.8652,4.8664,4.8666,4.8664,4.8663,4.8505,4.8648,4.8646,4.8646,4.8645,4.8644,4.8379,4.8415,4.8437,4.8477,4.8495,4.8518,4.8552,4.8559,4.8593,4.8631,4.8624,4.867,4.8689,4.873,4.8744,4.8778,4.8758,4.8777,4.8781,4.8785,4.8789,4.8661,4.8784,4.8784,4.8784,4.8783,4.8783,0,4.8504,4.8517,4.8554,4.8589,4.862,4.86,4.8626,4.8652,4.8693,4.8714,4.8744,4.879,4.8826,4.8834,4.8868,4.8894,4.8885,4.8903,4.8899,4.8902,4.8806,4.8791,4.8909,4.8909,4.8909,4.8909,4.8909,4.8909,4.8573,4.8633,4.8633,4.87,4.8712,4.8757,4.8774,4.8794,4.881,4.8863,4.8893,4.8899,4.8914,4.8948,4.898,4.8981,4.8993,4.9014,4.9011,4.8921,4.8909,4.8897,4.8882,4.9017,4.9017,4.9103,4.9104,4.9105]}]]